(354) Eleonora(354) Eleonora Epoch 2007 Oct. 27.0 TT = JDT 2454400.5 Goffin M 168.57552 (2000.0) P Q n 0.21057865 Peri. 6.86365 -0.83735693 -0.50832756 a 2.7980781 Node 140.40845 +0.48535374 -0.86058134 e 0.1140706 Incl. 18.39259 +0.25152558 -0.03166770 P 4.68 H 6.44 G 0.37 U 0 From 1700 observations at 75 oppositions, 1893-1997, mean residual 0".55.An explanation of the orbital elements is available.
These orbital elements are also available in forms suitable for loading into a number of popular planetarium-type software programs.
Personalized ephemerides for this object (and others) can be generated using the MPES.
Date TT R. A. (2000) Decl. Delta r Elong. Phase V 2008 07 19 01 41.58 -04 04.5 2.788 3.041 94.4 19.5 11.8 2008 07 24 01 45.14 -04 20.3 2.719 3.037 98.3 19.3 11.8 2008 07 29 01 48.32 -04 39.7 2.651 3.034 102.3 19.1 11.7 2008 08 03 01 51.10 -05 03.0 2.583 3.030 106.4 18.7 11.6 2008 08 08 01 53.45 -05 30.1 2.518 3.026 110.5 18.3 11.6 2008 08 13 01 55.33 -06 01.0 2.455 3.023 114.8 17.7 11.5 2008 08 18 01 56.74 -06 35.5 2.394 3.019 119.1 17.0 11.4 2008 08 23 01 57.63 -07 13.5 2.336 3.015 123.5 16.2 11.3 2008 08 28 01 57.98 -07 54.7 2.282 3.011 127.9 15.3 11.3 2008 09 02 01 57.78 -08 38.8 2.232 3.007 132.4 14.3 11.2 2008 09 07 01 57.02 -09 25.2 2.187 3.002 136.9 13.3 11.1 2008 09 12 01 55.72 -10 13.3 2.146 2.998 141.3 12.1 11.0 2008 09 17 01 53.87 -11 02.2 2.111 2.994 145.5 11.0 11.0 2008 09 22 01 51.53 -11 51.3 2.082 2.989 149.4 9.8 10.9 2008 09 27 01 48.71 -12 39.4 2.059 2.985 152.7 8.8 10.8 2008 10 02 01 45.50 -13 25.7 2.042 2.981 155.3 8.1 10.8 2008 10 07 01 41.98 -14 09.0 2.032 2.976 156.7 7.6 10.8 2008 10 12 01 38.22 -14 48.4 2.028 2.971 156.7 7.6 10.7 2008 10 17 01 34.35 -15 22.9 2.032 2.967 155.3 8.1 10.8 2008 10 22 01 30.46 -15 52.0 2.042 2.962 152.8 8.8 10.8 2008 10 27 01 26.66 -16 15.1 2.058 2.957 149.3 9.9 10.8 2008 11 01 01 23.06 -16 31.8 2.081 2.952 145.4 11.0 10.9 2008 11 06 01 19.75 -16 41.8 2.110 2.947 141.1 12.2 11.0 2008 11 11 01 16.83 -16 45.4 2.144 2.942 136.6 13.4 11.0 2008 11 16 01 14.35 -16 42.7 2.182 2.937 132.0 14.5 11.1 2008 11 21 01 12.36 -16 33.9 2.226 2.932 127.4 15.5 11.1 2008 11 26 01 10.89 -16 19.6 2.273 2.927 122.8 16.5 11.2 2008 12 01 01 09.99 -16 00.1 2.323 2.922 118.2 17.3 11.3 2008 12 06 01 09.65 -15 35.8 2.377 2.917 113.8 18.0 11.3 2008 12 11 01 09.87 -15 07.4 2.433 2.912 109.4 18.6 11.4 2008 12 16 01 10.64 -14 35.4 2.490 2.906 105.1 19.1 11.5 2008 12 21 01 11.94 -14 00.0 2.550 2.901 100.9 19.5 11.5 2008 12 26 01 13.74 -13 21.8 2.610 2.896 96.8 19.7 11.6